EW7614 Weather Reports


time (UTC)temp
C
wind
direction
speed
KPH
gust
KPH
rain 1hr
cm
rain 24hr
cm
rain mn
cm
humidity
%
barometer
mb
20260507064541 8 283 0.0 1.6 0.00 0.00 0.00 81 1009.3
20260507063130 8 299 0.0 1.6 0.00 0.00 0.00 84 1009.3
20260507061538 8 306 1.6 4.8 0.00 0.00 0.00 84 1009.3
20260507060120 8 220 0.0 0.0 0.00 0.00 0.00 84 1009.2
20260507054512 8 215 0.0 0.0 0.00 0.00 0.00 84 1009.0
20260507053120 7 214 0.0 0.0 0.00 0.00 0.00 86 1008.8
20260507051519 7 214 0.0 0.0 0.00 0.00 0.00 84 1008.7
20260507050054 7 214 0.0 0.0 0.00 0.00 0.00 85 1008.7
20260507044516 7 213 0.0 0.0 0.00 0.00 0.00 88 1008.5
20260507043108 6 215 0.0 0.0 0.00 0.00 0.00 88 1008.4
20260507041538 6 259 0.0 3.2 0.00 0.00 0.00 89 1008.3
20260507040126 6 273 0.0 0.0 0.00 0.00 0.00 89 1008.3
20260507034538 6 277 0.0 0.0 0.00 0.00 0.00 88 1008.0
20260507033134 6 273 0.0 0.0 0.00 0.00 0.00 87 1007.9
20260507031554 6 273 0.0 1.6 0.00 0.00 0.00 86 1007.9
20260507030133 6 52 0.0 1.6 0.00 0.00 0.00 87 1007.8
20260507024602 6 271 0.0 0.0 0.00 0.00 0.00 87 1008.0
20260507023040 6 272 0.0 1.6 0.00 0.00 0.00 85 1007.9
20260507021631 6 197 0.0 0.0 0.00 0.00 0.00 85 1007.9
20260507020050 7 197 0.0 0.0 0.00 0.00 0.00 82 1007.7
20260507014510 7 148 0.0 0.0 0.00 0.00 0.00 81 1007.6
20260507013053 8 74 0.0 1.6 0.00 0.00 0.00 77 1007.5
20260507011514 8 266 0.0 1.6 0.00 0.00 0.00 76 1007.4
20260507010109 9 71 0.0 1.6 0.00 0.00 0.00 75 1007.4
20260507004532 9 151 0.0 3.2 0.00 0.00 0.00 74 1007.2
20260507003120 9 114 0.0 1.6 0.00 0.00 0.00 74 1007.1
20260507001549 10 161 0.0 9.7 0.00 0.00 0.00 72 1007.0
20260507000129 10 147 0.0 11.3 0.00 0.00 0.00 75 1007.0
20260506234544 9 109 0.0 1.6 0.00 0.00 0.00 73 1007.1
20260506233125 9 146 0.0 12.9 0.00 0.00 0.00 73 1006.9
20260506231544 10 173 6.4 14.5 0.00 0.00 0.00 71 1006.9
20260506230131 10 135 0.0 9.7 0.00 0.00 0.00 73 1006.8
20260506224542 10 135 0.0 9.7 0.00 0.00 0.00 71 1006.6
20260506223134 10 160 4.8 12.9 0.00 0.00 0.00 70 1006.6
20260506221544 10 188 6.4 12.9 0.00 0.00 0.00 71 1006.6
20260506220001 10 78 1.6 9.7 0.00 0.00 0.00 74 1006.5
20260506214606 11 167 3.2 11.3 0.00 0.00 0.00 73 1006.2
20260506213025 10 148 1.6 9.7 0.00 0.00 0.00 72 1006.1
20260506211608 10 105 1.6 4.8 0.00 0.00 0.00 77 1005.9
20260506210021 10 320 0.0 9.7 0.00 0.00 0.00 74 1005.8
20260506204610 8 252 0.0 1.6 0.00 0.00 0.00 80 1005.6
20260506203029 10 200 0.0 8.0 0.00 0.00 0.00 74 1005.4
20260506201623 9 187 0.0 1.6 0.00 0.00 0.00 79 1005.2
20260506200044 10 243 0.0 1.6 0.00 0.00 0.00 78 1005.0
20260506194631 11 209 0.0 1.6 0.00 0.00 0.00 76 1004.8
20260506193044 11 195 3.2 8.0 0.00 0.00 0.00 74 1004.6
20260506191504 12 274 0.0 3.2 0.00 0.00 0.00 72 1004.6
20260506184522 12 266 4.8 14.5 0.00 0.00 0.00 68 1004.0
20260506183130 13 295 11.3 16.1 0.00 0.00 0.00 62 1003.7
20260506181555 15 286 4.8 16.1 0.00 0.00 0.00 55 1003.5
20260506180009 15 278 6.4 25.7 0.00 0.00 0.00 52 1003.1
20260506174600 16 200 6.4 16.1 0.00 0.00 0.00 49 1002.7
20260506173019 16 292 11.3 16.1 0.00 0.00 0.00 48 1002.4
20260506171613 16 284 8.0 20.9 0.00 0.00 0.00 46 1002.1
20260506170024 16 274 4.8 17.7 0.00 0.00 0.00 46 1001.9
20260506164612 17 243 8.0 27.4 0.00 0.00 0.00 48 1001.7
20260506163037 17 254 1.6 4.8 0.00 0.00 0.00 52 1001.7
20260506161623 18 102 0.0 14.5 0.00 0.00 0.00 44 1001.3
20260506160036 18 115 1.6 11.3 0.00 0.00 0.00 44 1001.1
20260506154619 18 134 0.0 8.0 0.00 0.00 0.00 44 1000.9
20260506153039 18 191 3.2 22.5 0.00 0.00 0.00 42 1000.6
20260506151630 19 107 12.9 29.0 0.00 0.00 0.00 39 1000.6
20260506150046 20 74 0.0 6.4 0.00 0.00 0.00 39 1000.4
20260506144629 20 100 0.0 3.2 0.00 0.00 0.00 42 1000.4
20260506143038 20 63 0.0 9.7 0.00 0.00 0.00 38 1000.2
20260506141618 20 86 0.0 4.8 0.00 0.00 0.00 39 1000.3
20260506140036 20 236 1.6 6.4 0.00 0.00 0.00 39 1000.3
20260506134605 21 93 1.6 8.0 0.00 0.00 0.00 37 1000.5
20260506133018 21 51 3.2 14.5 0.00 0.00 0.00 36 1000.6
20260506131600 21 61 3.2 11.3 0.00 0.00 0.00 35 1000.9
20260506130016 20 51 6.4 30.6 0.00 0.00 0.00 36 1000.7
20260506124556 21 185 6.4 16.1 0.00 0.00 0.00 36 1001.1
20260506123015 21 102 3.2 20.9 0.00 0.00 0.00 37 1000.8
20260506121559 21 165 3.2 14.5 0.00 0.00 0.00 39 1001.2
20260506120130 21 120 1.6 12.9 0.00 0.00 0.00 40 1001.1
20260506114529 21 238 8.0 19.3 0.00 0.00 0.00 38 1001.6
20260506113107 21 84 0.0 8.0 0.00 0.00 0.00 43 1001.7
20260506111509 20 360 1.6 20.9 0.00 0.00 0.00 45 1001.8
20260506110047 20 67 4.8 19.3 0.00 0.00 0.00 40 1001.8
20260506104617 20 236 0.0 14.5 0.00 0.00 0.00 40 1001.9
20260506103024 20 109 1.6 11.3 0.00 0.00 0.00 43 1002.1
20260506101510 19 323 1.6 4.8 0.00 0.00 0.00 42 1002.4
20260506100115 18 299 1.6 11.3 0.00 0.00 0.00 50 1002.6
20260506094531 18 266 4.8 12.9 0.00 0.00 0.00 51 1002.8
20260506093105 16 267 0.0 3.2 0.00 0.00 0.00 58 1003.3
20260506091502 15 257 0.0 3.2 0.00 0.00 0.00 59 1003.5
20260506090029 15 305 1.6 3.2 0.00 0.00 0.00 62 1003.3
20260506084603 15 238 0.0 4.8 0.00 0.00 0.00 64 1003.5
20260506083001 14 215 0.0 3.2 0.00 0.00 0.00 62 1003.6
20260506081537 13 213 0.0 4.8 0.00 0.00 0.00 61 1003.7
20260506080111 13 205 0.0 0.0 0.00 0.00 0.00 69 1003.9
20260506073027 12 307 0.0 4.8 0.00 0.00 0.00 71 1004.4
20260506071614 11 293 1.6 4.8 0.00 0.00 0.00 69 1004.6